• MPC Preparation (Info)

  • MPEC 2019-F77 : 2014 WV365

    The following Minor Planet Electronic Circular may be linked-to from your own Web pages, but must not otherwise be redistributed electronically.

    A form allowing access to any MPEC is at the bottom of this page.


    Read MPEC 2019-F76 Read MPEC 2019-F78


    M.P.E.C. 2019-F77                                Issued 2019 Mar. 26, 02:17 UT
    
         The Minor Planet Electronic Circulars contain information on unusual
             minor planets and routine data on comets.  They are published
        on behalf of Division F of the International Astronomical Union by the
              Minor Planet Center, Smithsonian Astrophysical Observatory,
                              Cambridge, MA 02138, U.S.A.
    
                 Prepared using the Tamkin Foundation Computer Network
    
                                  MPC@CFA.HARVARD.EDU
                URL https://www.minorplanetcenter.net/    ISSN 1523-6714
    
                                      2014 WV365
    
                               Revision to MPEC 2014-X09
    
    Additional Observations:
         K14Wa5V  C2018 07 12.48944321 29 26.828-00 05 59.35         23.0 GVEF077F51
         K14Wa5V  C2018 07 12.50270021 29 26.313-00 05 57.78         22.5 GVEF077F51
         K14Wa5V  C2018 07 12.51591921 29 25.809-00 05 56.75         23.4 GVEF077F51
         K14Wa5V  C2018 08 14.39034120 59 01.475-00 37 43.97         22.8 GVEF077F51
         K14Wa5V  C2018 08 14.40338820 59 00.578-00 37 46.91         22.1 GVEF077F51
         K14Wa5V  C2018 08 14.41640820 58 59.693-00 37 49.95         22.6 GVEF077F51
         K14Wa5V  C2018 08 14.42940120 58 58.795-00 37 53.01         22.6 GVEF077F51
    
    Observer details:
    F51 Pan-STARRS 1, Haleakala.  Observers J. Bulger, K. Chambers, T. Lowe,
        E. Magnier, A. Schultz, M. Willman.  Measurers S. Chastel, M. Huber,
        Y. Ramanjooloo, R. Wainscoat, R. Weryk.  1.8-m Ritchey-Chretien + CCD.
    
    First and last observations above in comparison with prediction:
    Residuals in seconds of arc, reference and Delta-T
    180712 F51  8.4+  3.5+    180814 F51  9.2+  3.9+    MPO335310   -0.010 day
    
    Orbital elements:
    2014 WV365                                               Earth MOID = 0.2381 AU
    Epoch 2019 Apr. 27.0 TT = JDT 2458600.5                 MPC
    M   0.43400              (2000.0)            P               Q
    n   0.22361202     Peri.  201.45897     +0.17044147     -0.97411853
    a   2.6882683      Node   239.00302     +0.92739073     +0.20950246
    e   0.5478940      Incl.    9.97407     +0.33301071     -0.08486348
    P   4.41           H   18.8           G   0.15           U   1
    Residuals in seconds of arc
    141118 G45  0.1-  0.2-    141128 850  1.1+  1.3-    141229 H15  0.0   0.6-
    141118 G45  0.1-  0.2+    141128 I52  0.1+  0.0     141229 H15  0.1-  0.1-
    141118 G45  0.1-  0.3+    141128 I52  0.0   0.0     150108 807  0.1+  0.2+
    141118 G45  0.4+  0.0     141128 I52  0.1-  0.0     150108 807  0.1+  0.1+
    141119 G45  0.1+  0.0     141128 I52  0.1+  0.1+    150108 807  0.1+  0.1-
    141119 G45  0.3+  0.2-    141128 291  0.1-  0.0     150108 807  0.1+  0.1-
    141119 G45  0.0   0.2+    141128 291  0.1-  0.2+    150108 807  0.0   0.2-
    141119 G45  0.0   0.1+    141128 291  0.1-  0.1+    150112 F51  0.0   0.0
    141122 G45  0.2-  0.1+    141129 850  0.1-  0.6+    150112 F51  0.0   0.0
    141122 G45  0.1-  0.3-    141129 850  0.1+  0.5+    150112 F51  0.0   0.0
    141122 G45  0.5-  0.1+    141129 850  0.6-  0.1-    150112 F51  0.0   0.0
    141122 G45  0.2-  0.3+    141129 850  1.1-  0.6+    150118 C41  1.5-  0.1+
    141122 G45  0.4-  0.2-    141129 850  0.2-  0.2+    150118 C41 (1.2-  1.5+)
    141122 G45  0.4-  0.1+    141129 850  0.5+  0.5+    150128 F51  0.1+  0.0
    141127 703  0.5-  0.8+    141129 448  0.0   0.2-    150128 F51  0.1+  0.0
    141127 703  0.3+  0.1-    141129 448  0.0   0.1+    150128 F51  0.1+  0.0
    141127 703  0.9-  0.7+    141129 448  0.3-  0.1+    150131 F51  0.1+  0.0
    141127 H21  0.1+  0.1-    141129 448  0.0   0.1-    150131 F51  0.1+  0.1-
    141127 H01  0.2-  0.1+    141130 H21  0.1+  0.0     150131 F51  0.0   0.0
    141127 H21  0.3+  0.1+    141130 H21  0.0   0.1+    150208 807  0.2+  0.0
    141127 H21  0.1+  0.0     141130 H21  0.1+  0.1+    150208 807  0.1+  0.0
    141127 H21  0.3+  0.1-    141201 958  0.3+  0.8-    150208 807  0.1-  0.0
    141127 H01  0.2-  0.0     141201 958  0.8+  0.6-    150209 807  0.0   0.1-
    141127 H21  0.2+  0.1+    141201 958  0.4+  0.8-    150209 807  0.0   0.0
    141127 H21  0.1+  0.1-    141204 L04  0.4-  0.1+    150209 807  0.0   0.0
    141127 H21  0.2+  0.2-    141204 L04  0.8+  0.3-    150210 703  0.2-  0.5+
    141127 H01  0.1-  0.1+    141204 L04  0.1-  0.1+    150210 703  0.2+  0.8+
    141127 H01  0.1-  0.0     141215 G40  0.2+  0.1+    150210 703  0.1+  0.5+
    141127 703  0.0   0.4+    141215 G40  0.5+  0.2-    150210 703  0.2-  0.5+
    141127 703  0.2+  0.3+    141215 807  0.2-  0.2+    150220 807  0.1+  0.3-
    141127 703  0.6+  0.3+    141215 807  0.1-  0.1+    150220 807  0.2-  0.1-
    141127 703  0.2-  0.3+    141215 807  0.1+  0.0     150220 807  0.2-  0.1-
    141127 900  0.2+  0.2+    141215 807  0.0   0.4+    150224 F51  0.0   0.1-
    141127 900  0.4-  0.1+    141215 807  0.1+  0.1+    150224 F51  0.0   0.0
    141127 900  0.1-  0.0     141215 F51  0.1-  0.1+    150224 F51  0.0   0.0
    141127 O75  0.2+  0.4-    141215 F51  0.1-  0.0     150224 F51  0.1-  0.1-
    141127 O75  0.1+  0.4-    141215 F51  0.1-  0.1+    150307 807  0.1+  0.6+
    141127 O75  0.8-  0.2-    141215 474  0.2-  0.1-    150307 807  0.1-  0.3+
    141127 O75  1.0-  0.6+    141215 474  0.1-  0.0     150307 807  0.1+  0.2-
    141127 O75 (1.6-  0.8+)   141215 474  0.1-  0.1-    150316 807  0.3+  0.1+
    141128 958  0.9+  0.7-    141223 807  0.0   0.2-    150316 807  0.2+  0.2+
    141128 958  0.4+  0.7-    141223 807  0.0   0.1-    150316 807  0.2+  0.0
    141128 958  0.3+  0.2-    141223 807  0.0   0.1-    180712 F51  0.0   0.3+
    141128 H36  0.0   0.3-    141223 807  0.1+  0.0     180712 F51  0.0   0.3+
    141128 H36  0.2+  0.2-    141223 807  0.1-  0.0     180712 F51  0.1+  0.1-
    141128 H36  0.2+  0.1-    141229 G45  0.1-  0.1+    180814 F51  0.0   0.0
    141128 H36  0.3+  0.2-    141229 G45  0.3+  0.1+    180814 F51  0.1-  0.0
    141128 H36  0.0   0.2+    141229 H15  0.3+  0.4+    180814 F51  0.0   0.0
    141128 850  0.3+  0.1+    141229 G45  0.2-  0.1-    180814 F51  0.1-  0.1-
    141128 850  0.1+  0.3-    141229 G45  0.1-  0.1-
    141128 850  0.5+  0.7-    141229 G45  0.3-  0.2+
    
    Ephemeris:
    2014 WV365               a,e,i = 2.69, 0.55, 10                  q = 1.2154
    Date    TT    R. A. (2000) Decl.     Delta      r     Elong.  Phase     V
    2019 02 24    00 23 55.5 +06 00 05   2.1103  1.3918    33.2    22.9    22.2
    ...
    2019 03 11    01 09 48.1 +09 27 18   2.0844  1.3195    29.9    22.0    22.1
    ...
    2019 03 19    01 35 55.8 +11 16 38   2.0709  1.2873    28.5    21.7    22.0
    ...
    2019 03 25    01 56 17.3 +12 35 53   2.0619  1.2666    27.7    21.4    21.9
    2019 03 26    01 59 44.7 +12 48 46   2.0606  1.2635    27.5    21.4    21.9
    2019 03 27    02 03 13.1 +13 01 32   2.0592  1.2604    27.4    21.4    21.9
    ...
    2019 04 02    02 24 26.2 +14 15 28   2.0522  1.2440    26.8    21.2    21.9
    ...
    2019 04 10    02 53 40.1 +15 45 10   2.0459  1.2277    26.1    21.0    21.8
    ...
    2019 04 25    03 50 53.2 +17 55 45   2.0465  1.2154    25.3    20.7    21.8
    
    A. U. Tomatic                (C) Copyright 2019 MPC           M.P.E.C. 2019-F77
    

    Read MPEC 2019-F76 Read MPEC 2019-F78


    MPEC number:

    Enter an MPEC number in one of the following forms:

    • 1997-B01 (the full form)
    • J97B01 (the packed version of the full form)
    • B01 (the abbreviated form)